Regional Weather Roundup
Issued by NWS Wakefield, VA

Home | Current Version | Previous Version | Graphics & Text | Print | Product List | Glossary On
Versions: 1 2 3 4 5 6 7 8 9 10 11 12 13 14 15 16 17 18 19 20 21 22 23 24 25 26 27
000
ASUS41 KAKQ 231915
RWRAKQ

REGIONAL WEATHER ROUNDUP
NATIONAL WEATHER SERVICE WAKEFIELD VA
300 PM EDT SAT JUL 23 2016

Note: "fair" indicates few or no clouds below 12,000 feet with no
significant weather and/or obstructions to visibility. * = Denotes
station may not report precipitation (e.g., rain,snow,etc.),
thunder or fog.

VAZ042-051-052>054-056-232000-
NORTHERN VIRGINIA

CITY           SKY/WX    TMP DP  RH WIND       PRES   REMARKS
WASH NATIONAL  PTSUNNY   96  72  45 SW10      29.89F HX 104
DULLES         FAIR      94  69  44 VRB7      29.91F HX  99
FORT BELVOIR   FAIR      96  71  43 S12       29.90F HX 103
QUANTICO       FAIR      93  74  53 S8        29.91F HX 103
FREDERICKSBRG*   N/A     97  69  40 SW8       29.91F HX 103
STAFFORD*      FAIR      95  64  35 CALM      29.96F HX  97
WARRENTON      FAIR      97  61  30 SW5       29.93F HX  98
CULPEPER*      FAIR      94  72  47 SW3       29.94F HX 102
MANASSAS*      NOT AVBL
LEESBURG*      FAIR      97  75  49 SW9G22    29.92F HX 109
WINCHESTER     FAIR      95  68  41 W3        29.93F HX  99
FRONT ROYAL*   FAIR      95  72  46 S5        29.94F HX 103
LURAY*         FAIR      91  70  49 SW5       29.97F HX  97
$$

VAZ048-049-060>072-079>083-232000-
CENTRAL AND SOUTH CENTRAL VIRGINIA

CITY           SKY/WX    TMP DP  RH WIND       PRES   REMARKS
RICHMOND       FAIR      92  74  55 S8        29.94F HX 101
CHESTERFIELD*  FAIR      93  68  43 W6        29.96F HX  97
PETERSBURG*    FAIR      94  75  54 S6        29.95F HX 104
HANOVER        FAIR      96  71  44 VRB5      29.95F HX 103
TAPPAHANNOCK*  FAIR      97  67  36 S8        29.94S HX 101
QUINTON*       FAIR      92  75  56 S3        29.94F HX 103
CHARLOTTSVILLE FAIR      97  67  37 S12       29.95F HX 101
GORDONSVILLE*  FAIR      94  71  46 S6        29.94F HX 101
ORANGE*          N/A     97  64  34 CALM      29.97F HX  99
LOUISA*        FAIR      97  73  46 W3        29.95F HX 107
BUMPASS*       FAIR      93  73  53 SW3       29.95F HX 102
FARMVILLE*     NOT AVBL
CREWE*         FAIR      95  74  51 S9        29.95F HX 105
FORT PICKETT*  FAIR      92  73  53 S10G17    29.96F HX 101
CHASE CITY*    FAIR      94  72  49 S5        29.97F HX 102
CLARKSVILLE*   FAIR      93  73  52 CALM      29.96F HX 102
SOUTH HILL*    FAIR      94  75  53 SW8       30.02S HX 104
LAWRENCEVILLE* FAIR      94  73  50 S6        29.96S HX 103
EMPORIA*       FAIR      95  72  46 SE10      29.97S HX 103
$$

VAZ088>098-232000-
SOUTHEAST VIRGINIA

CITY           SKY/WX    TMP DP  RH WIND       PRES   REMARKS
NORFOLK        PTSUNNY   93  73  52 N6        29.94F HX 102
VIRGINIA BEACH FAIR      98  73  44 SW12      29.93F HX 108
NORFOLK NAVAL  FAIR      94  72  48 SW9       29.94F HX 102
WEST POINT*    FAIR      93  71  49 SW6       29.95F HX  99
SALUDA*        MOCLDY    93  79  63 S6        29.93S HX 110
NEWPORT NEWS   FAIR      93  76  57 SW12      29.94F HX 105
LANGLEY AFB    FAIR      94  75  54 SE14      29.93F HX 105
FORT EUSTIS    FAIR      94  78  60 VRB6      29.92F HX 110
WILLIAMSBURG*  FAIR      97  77  52 SE7       29.94F HX 112
HR EXEC AP*    FAIR      93  75  55 SW9       29.95F HX 104
FRANKLIN*      FAIR      93  74  53 SW6       29.95S HX 102
US460-WAKEFLD  FAIR      92  74  55 S6        29.94F HX 101
$$

VAZ020-022-025-037-045-232000-
WEST CENTRAL AND SOUTHWEST VIRGINIA

CITY           SKY/WX    TMP DP  RH WIND       PRES   REMARKS
STAUNTON*      FAIR      90  67  46 SW3       30.02F
WAYNESBORO*    MOCLDY    92  69  46 SE5       30.01F HX  96
HOT SPRINGS VA FAIR      82  64  54 CALM      30.18R
LYNCHBURG      FAIR      92  69  47 CALM      30.00F HX  97
DANVILLE       FAIR      94  70  45 VRB3      29.97F HX 100
SOUTH BOSTON*  FAIR      93  70  47 S3        29.96F HX  99
MARTINSVILLE   FAIR      93  68  43 S3        30.02F HX  97
ROANOKE        FAIR      95  62  33 S6        30.01F HX  96
BLACKSBURG     FAIR      90  65  43 CALM      30.10F
DUBLIN*        FAIR      90  65  42 CALM      30.08F
MARION*        FAIR      91  61  37 E3        30.12S
HILLSVILLE*    FAIR      87  64  46 S5        30.10F
RICHLANDS*     FAIR      88  67  49 NW5       30.12R
WISE*          CLOUDY    86  57  37 CALM      30.12S
ABINGDON*      FAIR      91  60  35 CALM      30.07F
$$

MDZ021>025-VAZ099-100-232000-
SOUTHERN MARYLAND AND THE DELMARVA PENINSULA

CITY           SKY/WX    TMP DP  RH WIND       PRES   REMARKS
PATUXENT RIVER MOSUNNY   93  69  45 SE12      29.90F HX  98
BAY BRIDGE APT SUNNY     93  73  52 SW8       29.88F HX 102
LEONARDTOWN    SUNNY     95  64  36 SW10      29.93F HX  97
DOVER          MOSUNNY   95  76  53 W9        29.87F HX 108
GEORGETOWN     MOSUNNY   95  71  45 SW10      29.89F HX 102
EASTON         SUNNY     95  77  55 SW8       29.93F HX 109
CAMBRIDGE      SUNNY     91  70  49 W6        29.90F HX  97
SALISBURY      MOSUNNY   92  75  57 S9        29.90F HX 103
OCEAN CITY     SUNNY     88  77  69 S10       29.90F HX 100
WALLOPS ISLAND FAIR      91  79  67 S16       29.92F HX 107
ACCOMACK*      FAIR      91  72  52 CALM      29.94S HX  98
$$

NCZ012>017-030>032-232000-
NORTH CENTRAL AND EASTERN NORTH CAROLINA

CITY           SKY/WX    TMP DP  RH WIND       PRES   REMARKS
ROANOKE RAPIDS FAIR      90  77  66 S5        29.97F HX 102
RALEIGH        MOSUNNY   91  72  53 SW7       29.97F HX  98
ELIZABETH CITY SUNNY     92  76  59 SW10G18   29.96F HX 104
AHOSKIE*       SUNNY     90  76  64 S3        29.96F HX 102
EDENTON*       SUNNY     93  75  55 SW9       29.97F HX 104
CURRITUCK*     SUNNY     92  75  56 S6        29.96F HX 102
KILL DEVIL HLS SUNNY     97  72  45 W5        29.96F HX 106
MANTEO           N/A     91  75  60 SW8       29.97F HX 101
CAPE HATTERAS  SUNNY     88  76  67 SW13      30.00F HX  99
TARBORO*       MOCLDY    93  78  60 SW6       29.97F HX 108
GOLDSBORO      PTSUNNY   93  77  60 SW9       29.96F HX 107
WASHINGTON     SUNNY     91  76  61 S3        29.97F HX 102
GREENVILLE     MOSUNNY   91  77  62 S9        29.98F HX 105
NEW BERN       MOSUNNY   93  73  52 S9        29.99F HX 102
WILMINGTON     PTSUNNY   89  75  63 S6        29.98F HX  99
$$

VAZ048-232000-
ELSEWHERE

CITY           SKY/WX    TMP DP  RH WIND       PRES   REMARKS
HARRISBURG PA  PTSUNNY   94  69  44 W8        29.86F HX  99
BALTIMORE      MOSUNNY   98  68  37 W12       29.88F HX 103
ANNAPOLIS      MOSUNNY   95  71  45 VRB5      29.88F HX 102
ANDREWS AFB    FAIR      95  73  48 SW7       29.89F HX 104
PHILADELPHIA   MOSUNNY   95  66  38 W17G23    29.86F HX  98
GREENSBORO     PTSUNNY   93  66  40 SE5       29.98F HX  96
ROCKY MOUNT    MOSUNNY   93  78  61 VRB7      29.97F HX 108
$$

VAZ100-232000-
MARINE

STATION/POSITION TIME  TEMP    WIND        PRES    WAVE   SWELL
                       AIR SEA DIR/SP/G            HT/PER HT/PER
                 (UTC) (F)     (DEG/KT/KT) (MB)    (FT/S) (FT/S)
BRANDYWINE LGT   1800   87     200/  3/  3   N/A
CAPE MAY NJ      1800   86 73  250/  5/  5 1012.0F
LEWES DE         1800   89 74  100/  2/  3 1012.4F
OCEAN-CITY-INLET 1800   76 68  210/ 14/ 16 1013.4F
WACHAPREAGUE VA  1800   88 86  200/ 11/ 13 1013.7F
THOMAS POINT MD  1900   87 84  170/ 10/ 11 1013.2F
GOOSES REEF MD   1900   89 86  140/  4/  6 1013.3F   0
COVE POINT MD    1800   87     130/  4/  5 1013.8F
SOLOMONS ISLAND  1800   89 84  100/  5/  7   N/A
BISHOPS HEAD MD  1800   87     210/  9/ 10 1013.6F
PINEY POINT MD   1800          190/  1/  3   N/A
POTOMAC MD       1900   87 85  170/ 10/ 12 1012.2F   1
CAMBRIDGE MD     1800   89 85  340/  8/  8 1012.3F
LEWISETTA VA     1800   88 85  110/  7/  8 1013.0F
RAPPAHANNOCK LGT 1800          210/  9/ 10 1014.7F
STINGRAY PT      1900   87 87  110/  8/  8 1013.9F   1/ 2
YORK RVR RNG VA  1800   87     160/  7/  8 1013.8F
YORKTOWN VA      1800   88 83   50/  5/  6 1013.7F
JAMESTOWN VA     1900   91 89  200/  6/  8   N/A     0
DOMINION TERM VA 1800   90     320/  1/  1 1014.4F
KIPTOPEKE VA     1800      81  220/  3/  3   N/A
CHES BAY BRIDGE  1800   85 76   80/  5/  6 1014.2F
CAPE HENRY VA    1800   84     110/  6/  9   N/A
WILLOUBY STN VA  1800   87     280/  6/  6   N/A
CAPE HENRY BUOY  1812      79                N/A     2/ 8
1ST LANDING BUOY 1900   84 82  110/  6/ 10 1013.3F
CAPE CHARLES BUO 1826      76                N/A     2/ 9
OFFSHORE WE BUOY 1821      81                N/A     2/ 9
64NM E OF VA BCH 1850   82 80  210/ 12/ 12 1014.4F   3/ 9   2/ 9
DUCK PIER NC     1800   87 60  210/  8/ 12 1014.4F
44100 DUCK FRF   1805      81                N/A     2/ 8
44056 DUCK FRF   1811      74                N/A     2/ 8
OREGON INLET NC  1818   85 84  190/ 17/ 18 1015.4F
HATTERAS NC      1800   87 82  210/  7/ 12 1016.0F
DIAMOND SHLS NC  1850   85 86  220/ 12/ 14 1016.3F   2/ 9   2/ 9
CAPE LOOKOUT NC  1800   85     220/  7/ 10 1016.2S
$$




USA.gov is the U.S. government's official web portal to all federal, state and local government web resources and services.